Weather History for Findlay, OH

Change the Weather History Date:

Sunday, January 6, 2013

  Actual Average Record
Temperature  
Mean Temperature 31 °F -  
Max Temperature 36 °F 31 °F 59 °F (2008)
Min Temperature 26 °F 20 °F -14 °F (2014)
Degree Days  
Heating Degree Days 34    
Moisture  
Dew Point 27 °F    
Average Humidity 83    
Maximum Humidity 93    
Minimum Humidity 75    
Precipitation  
Precipitation 0.00 in - - ()
Sea Level Pressure  
Sea Level Pressure 30.06 in    
Wind  
Wind Speed 15 mph (WSW)    
Max Wind Speed 22 mph    
Max Gust Speed 28 mph    
Visibility 6 miles    
Events Rain    
Averages and records for this station are not official NWS values.
T = Trace of Precipitation, MM = Missing Value Source: NWS Daily Summary

Daily Weather History Graph

Daily Weather History Graph

Search for Another Location

Airport:

Trip Planner

Search our weather history database for the weather conditions in past years. The results will help you decide how hot, cold, wet, or windy it might be!

Date:

Astronomy

Jan. 06, 2013 Rise Set
Actual Time 7:59 AM EST 5:21 PM EST
Civil Twilight 7:28 AM EST 5:52 PM EST
Nautical Twilight 6:54 AM EST 6:27 PM EST
Astronomical Twilight 6:21 AM EST 7:00 PM EST
Moon 2:11 AM EST (1/6) 12:49 PM EST (1/6)
Length of Visible Light 10h 23m
Length of Day
9h 22m
Waning Crescent, 33% of the Moon is Illuminated
Jan 6
Waning Crescent
Jan 11
New
Jan 18
First Quarter
Jan 26
Full
Feb 3
Last Quarter

Hourly Weather History & Observations

Time (EST) Temp. Windchill Dew Point Humidity Pressure Visibility Wind Dir Wind Speed Gust Speed Precip Events Conditions
12:53 AM 33.1 °F 23.4 °F 28.0 °F 82% 30.08 in 10.0 mi SSW 13.8 mph - N/A   Overcast
1:53 AM 33.1 °F 23.0 °F 28.0 °F 82% 30.05 in 10.0 mi SSW 15.0 mph - N/A   Overcast
2:53 AM 33.1 °F 23.0 °F 27.0 °F 78% 30.04 in 10.0 mi SSW 15.0 mph - N/A   Overcast
3:53 AM 34.0 °F 24.2 °F 27.0 °F 75% 30.03 in 10.0 mi SSW 15.0 mph - N/A   Overcast
4:53 AM 34.0 °F 25.0 °F 28.0 °F 79% 30.00 in 10.0 mi SW 12.7 mph - 0.00 in   Overcast
5:53 AM 34.0 °F 25.0 °F 28.9 °F 82% 29.99 in 9.0 mi SSW 12.7 mph - N/A   Overcast
6:53 AM 34.0 °F 25.0 °F 28.0 °F 79% 29.98 in 10.0 mi SSW 12.7 mph - N/A   Overcast
7:53 AM 34.0 °F 24.6 °F 28.9 °F 82% 29.98 in 9.0 mi SSW 13.8 mph - N/A   Overcast
8:35 AM 35.6 °F 26.6 °F 28.4 °F 75% 29.96 in 9.0 mi SW 13.8 mph - N/A   Overcast
8:53 AM 35.1 °F 25.2 °F 28.9 °F 78% 29.98 in 8.0 mi SSW 16.1 mph - N/A   Overcast
9:53 AM 35.1 °F 25.9 °F 28.9 °F 78% 29.99 in 8.0 mi SW 13.8 mph - N/A   Overcast
11:05 AM 35.6 °F 28.0 °F 30.2 °F 81% 29.99 in 8.0 mi SW 10.4 mph - N/A   Overcast
11:27 AM 35.6 °F 27.1 °F 30.2 °F 81% 29.98 in 8.0 mi SW 12.7 mph - N/A   Overcast
11:53 AM 36.0 °F 28.5 °F 30.0 °F 79% 29.99 in 8.0 mi WSW 10.4 mph - N/A   Overcast
12:53 PM 35.1 °F 26.4 °F 30.9 °F 85% 29.97 in 6.0 mi WSW 12.7 mph - N/A   Overcast
1:53 PM 34.0 °F 24.2 °F 30.9 °F 89% 29.98 in 2.5 mi WSW 15.0 mph - N/A   Overcast
2:04 PM 33.8 °F 23.5 °F 32.0 °F 93% 29.97 in 2.0 mi West 16.1 mph - 0.00 in Rain Light Rain
2:10 PM 33.8 °F 23.9 °F 30.2 °F 87% 29.97 in 3.0 mi West 15.0 mph - 0.00 in   Overcast
2:21 PM 33.8 °F 23.9 °F 30.2 °F 87% 29.98 in 2.5 mi West 15.0 mph - 0.00 in   Overcast
2:34 PM 33.8 °F 23.5 °F 30.2 °F 87% 29.99 in 3.0 mi West 16.1 mph - 0.00 in   Overcast
2:49 PM 33.8 °F 23.9 °F 30.2 °F 87% 29.99 in 8.0 mi West 15.0 mph - 0.00 in   Overcast
2:53 PM 33.1 °F 23.0 °F 28.0 °F 82% 30.01 in 8.0 mi West 15.0 mph 23.0 mph 0.00 in   Overcast
3:53 PM 32.0 °F 20.8 °F 27.0 °F 82% 30.05 in 6.0 mi West 17.3 mph - N/A   Haze
4:03 PM 30.2 °F 17.1 °F 26.6 °F 86% 30.05 in 7.0 mi West 21.9 mph 26.5 mph N/A   Overcast
4:12 PM 30.2 °F 17.4 °F 24.8 °F 80% 30.06 in 7.0 mi West 20.7 mph - N/A   Overcast
4:53 PM 30.0 °F 18.7 °F 25.0 °F 82% 30.10 in 5.0 mi West 16.1 mph - N/A   Haze
5:46 PM 28.4 °F 16.2 °F 24.8 °F 86% 30.11 in 6.0 mi WSW 17.3 mph - N/A   Haze
5:53 PM 28.9 °F 17.7 °F 24.1 °F 82% 30.13 in 6.0 mi West 15.0 mph - N/A   Haze
6:26 PM 28.4 °F 15.8 °F 23.0 °F 80% 30.14 in 6.0 mi WSW 18.4 mph 27.6 mph N/A   Haze
6:53 PM 27.0 °F 13.5 °F 23.0 °F 85% 30.18 in 5.0 mi West 19.6 mph - N/A   Overcast
7:22 PM 26.6 °F 13.8 °F 23.0 °F 86% 30.17 in 5.0 mi West 17.3 mph - N/A   Overcast
7:53 PM 26.1 °F 13.6 °F 23.0 °F 88% 30.20 in 4.0 mi West 16.1 mph - N/A   Overcast
8:21 PM 26.6 °F 15.2 °F 23.0 °F 86% 30.20 in 4.0 mi West 13.8 mph - N/A   Overcast
8:53 PM 27.0 °F 16.1 °F 23.0 °F 85% 30.22 in 4.0 mi West 12.7 mph - N/A   Overcast
9:53 PM 27.0 °F 16.7 °F 24.1 °F 89% 30.25 in 5.0 mi West 11.5 mph - N/A   Overcast
10:53 PM 28.0 °F 18.1 °F 24.1 °F 85% 30.27 in 5.0 mi West 11.5 mph - N/A   Overcast
11:53 PM 28.9 °F 19.2 °F 25.0 °F 85% 30.29 in 5.0 mi West 11.5 mph - N/A   Overcast